Regional Weather Roundup
Issued by NWS Green Bay, WI

Home | Current Version | Previous Version | Graphics & Text | Print | Product List | Glossary Off
Versions: 1 2 3 4 5 6 7 8 9 10 11 12 13 14 15 16 17 18 19 20 21 22 23 24 25 26 27 28 29 30 31 32 33 34 35 36 37 38 39 40 41 42 43 44 45 46 47 48 49 50

000
ASUS43 KGRB 210559
RWRGRB

NORTH-CENTRAL AND NORTHEAST WISCONSIN REGIONAL WEATHER ROUNDUP
NATIONAL WEATHER SERVICE GREEN BAY WI
1200 AM CST SUN DEC 21 2014

WIZ005-009-010>012-018-019-210700-
NORTH CENTRAL WISCONSIN

CITY           SKY/WX    TMP DP  RH WIND       PRES   REMARKS
IRONWOOD       CLOUDY    30  27  86 S13       30.07S
MANITOWISH WTR NOT AVBL
ARBOR VITAE    NOT AVBL
EAGLE RIVER    NOT AVBL
LAND O LAKES   NOT AVBL
RHINELANDER    CLOUDY    26  24  92 S5        30.11F FOG
PHILLIPS       NOT AVBL
ANTIGO         NOT AVBL
TOMAHAWK       NOT AVBL
MERRILL        NOT AVBL
$$

WIZ013-073-210700-
NORTHEAST WISCONSIN

CITY           SKY/WX    TMP DP  RH WIND       PRES   REMARKS
IRON MOUNTAIN  CLOUDY    27  23  85 S5        30.15S
MARINETTE      CLOUDY    28  23  80 CALM      30.20S
$$

WIZ017-030-035>037-045-210700-
CENTRAL WISCONSIN

CITY           SKY/WX    TMP DP  RH WIND       PRES   REMARKS
MEDFORD        NOT AVBL
WAUSAU         CLOUDY    28  25  88 S5        30.13F
MOSINEE        NOT AVBL
MARSHFIELD     CLOUDY    29  26  89 S6        30.13F FOG
WISC RAPIDS    CLOUDY    29  25  85 S5        30.17S
STEVENS POINT  NOT AVBL
WAUPACA        NOT AVBL
SHAWANO        NOT AVBL
CLINTONVILLE   NOT AVBL
$$

WIZ038-039-048-051-210700-
FOX VALLEY

CITY           SKY/WX    TMP DP  RH WIND       PRES   REMARKS
NWS GREEN BAY  CLOUDY    29  27  92 S6        30.20F FOG
APPLETON       NOT AVBL
OSHKOSH        CLOUDY    29  26  89 S6        30.19F FOG
FOND DU LAC    CLOUDY    30  26  85 S5        30.20S
$$

WIZ022-050-052-210700-
EAST CENTRAL WISCONSIN

CITY           SKY/WX    TMP DP  RH WIND       PRES   REMARKS
STURGEON BAY   CLOUDY    28  25  86 CALM      30.22S
MANITOWOC      CLOUDY    30  28  93 CALM      30.22S
SHEBOYGAN      CLOUDY    30  25  81 CALM      30.21F
$$

LMZ563-521-522-541>543-210700-
LAKESHORE

STATION/POSITION TIME  TEMP    WIND        PRES    VSBY  WAVE
                       AIR SEA DIR/SP/G                  HT/PER
                 (UTC) (F)     (DEG/KT/KT) (MB)    (MI)  (FT/S)
SHEBOYGAN LKSHOR 0500   31 34  200/  5/  6 1024.5S
KEWAUNEE LKSHORE 0500   29      CALM  /  1 1022.1F
ALGOMA MARINA    0500             CALM       N/A
NORTHPORT PIER   0500   31     260/  1/  3 1023.0S
SISTER BAY LKSHO 0500             CALM       N/A
CHAMBERS ISLAND  0500   28        CALM     1023.0F
MENOMINEE LKSHOR 0500   29     210/  3/  3 1023.4S
$$



USA.gov is the U.S. government's official web portal to all federal, state and local government web resources and services.